Weather History for KSYF - October, 2012

Change the Weather History Date:

Wednesday, October 31, 2012

  Actual Average Record
Temperature  
Mean Temperature 58 °F -  
Max Temperature 76 °F 58 °F 60 °F (2013)
Min Temperature 40 °F 30 °F 23 °F (2014)
Degree Days  
Heating Degree Days 7    
Growing Degree Days 8 (Base 50)    
Moisture  
Dew Point 30 °F    
Average Humidity 45    
Maximum Humidity 75    
Minimum Humidity 13    
Precipitation  
Precipitation 0.00 in - - ()
Sea Level Pressure  
Sea Level Pressure 30.06 in    
Wind  
Wind Speed 7 mph ()    
Max Wind Speed 13 mph    
Max Gust Speed 20 mph    
Visibility 10.0 miles    
Events      
Averages and records for this station are not official NWS values.
T = Trace of Precipitation, MM = Missing Value Source: Averaged Metar Reports

Daily Weather History Graph

Daily Weather History Graph

Search for Another Location

Airport or City:

Trip Planner

Search our weather history database for the weather conditions in past years. The results will help you decide how hot, cold, wet, or windy it might be!

Date:

Astronomy

Oct. 31, 2012 Rise Set
Actual Time 8:15 AM CDT 6:45 PM CDT
Civil Twilight 7:47 AM CDT 7:13 PM CDT
Nautical Twilight 7:15 AM CDT 7:45 PM CDT
Astronomical Twilight 6:44 AM CDT 8:16 PM CDT
Moon 7:58 PM CDT (10/31) 9:57 AM CDT (10/31)
Length of Visible Light 11h 26m
Length of Day
10h 30m
Full, 97% of the Moon is Illuminated
Oct 31
Full
Nov 6
Last Quarter
Nov 13
New
Nov 20
First Quarter
Nov 28
Full

Hourly Weather History & Observations

Time (CDT) Temp. Windchill Dew Point Humidity Pressure Visibility Wind Dir Wind Speed Gust Speed Precip Events Conditions
12:15 AM 48.6 °F - 32.4 °F 54% 30.05 in 10.0 mi SSW 5.8 mph - N/A   Clear
12:35 AM 47.1 °F - 32.0 °F 56% 30.06 in 10.0 mi East 3.5 mph - N/A   Clear
12:55 AM 45.0 °F - 32.0 °F 60% 30.07 in 10.0 mi Calm Calm - N/A   Clear
1:15 AM 44.2 °F 40.3 °F 32.4 °F 63% 30.06 in 10.0 mi South 6.9 mph - N/A   Clear
1:35 AM 48.2 °F - 32.4 °F 54% 30.05 in 10.0 mi SSW 9.2 mph - N/A   Clear
1:55 AM 45.0 °F 39.7 °F 32.5 °F 62% 30.05 in 10.0 mi SW 10.4 mph - N/A   Clear
2:15 AM 44.2 °F 39.7 °F 32.9 °F 64% 30.06 in 10.0 mi SW 8.1 mph - N/A   Clear
2:35 AM 43.3 °F 37.7 °F 33.1 °F 67% 30.06 in 10.0 mi SW 10.4 mph - N/A   Clear
2:55 AM 42.1 °F 37.1 °F 33.3 °F 71% 30.06 in 10.0 mi SW 8.1 mph - N/A   Clear
3:15 AM 43.0 °F 37.7 °F 33.4 °F 69% 30.06 in 10.0 mi SW 9.2 mph - N/A   Clear
3:35 AM 44.6 °F 38.8 °F 34.0 °F 66% 30.07 in 10.0 mi SW 11.5 mph - N/A   Clear
3:55 AM 44.4 °F 39.0 °F 33.8 °F 66% 30.07 in 10.0 mi SW 10.4 mph - N/A   Clear
4:15 AM 43.3 °F 37.2 °F 33.8 °F 69% 30.06 in 10.0 mi SW 11.5 mph - N/A   Clear
4:35 AM 43.0 °F 38.2 °F 33.4 °F 69% 30.07 in 10.0 mi WSW 8.1 mph - N/A   Clear
4:55 AM 41.2 °F 35.5 °F 33.1 °F 73% 30.07 in 10.0 mi SW 9.2 mph - N/A   Clear
5:15 AM 40.5 °F 35.1 °F 32.9 °F 74% 30.07 in 10.0 mi SW 8.1 mph - N/A   Clear
5:35 AM 40.5 °F 34.6 °F 32.9 °F 74% 30.06 in 10.0 mi SW 9.2 mph - N/A   Clear
5:55 AM 40.6 °F 34.8 °F 33.1 °F 74% 30.06 in 10.0 mi SW 9.2 mph - N/A   Clear
6:15 AM 40.5 °F 34.1 °F 33.1 °F 75% 30.06 in 10.0 mi SW 10.4 mph - N/A   Clear
6:35 AM 40.5 °F 34.1 °F 33.3 °F 75% 30.06 in 10.0 mi SW 10.4 mph - N/A   Clear
6:55 AM 41.0 °F 34.7 °F 33.3 °F 74% 30.05 in 10.0 mi SW 10.4 mph - N/A   Clear
7:15 AM 41.4 °F 35.2 °F 33.3 °F 73% 30.05 in 10.0 mi SW 10.4 mph - N/A   Clear
7:35 AM 41.9 °F 35.9 °F 33.3 °F 71% 30.06 in 10.0 mi SW 10.4 mph - N/A   Clear
7:55 AM 41.4 °F 35.2 °F 33.3 °F 73% 30.06 in 10.0 mi SW 10.4 mph - N/A   Clear
8:15 AM 41.0 °F 34.3 °F 33.3 °F 74% 30.07 in 10.0 mi WSW 11.5 mph - N/A   Clear
8:35 AM 41.2 °F 34.5 °F 33.3 °F 73% 30.07 in 10.0 mi SW 11.5 mph - N/A   Clear
8:55 AM 41.9 °F 35.9 °F 33.4 °F 72% 30.08 in 10.0 mi SW 10.4 mph - N/A   Clear
9:15 AM 43.5 °F 37.9 °F 33.8 °F 69% 30.08 in 10.0 mi WSW 10.4 mph - N/A   Clear
9:35 AM 45.7 °F 40.6 °F 33.8 °F 63% 30.09 in 10.0 mi WSW 10.4 mph - N/A   Clear
9:55 AM 48.4 °F - 34.0 °F 58% 30.09 in 10.0 mi WSW 9.2 mph - N/A   Clear
10:15 AM 51.8 °F - 34.2 °F 51% 30.09 in 10.0 mi WSW 9.2 mph - N/A   Clear
10:35 AM 55.4 °F - 34.9 °F 46% 30.09 in 10.0 mi WSW 8.1 mph - N/A   Clear
10:55 AM 58.3 °F - 34.9 °F 41% 30.09 in 10.0 mi WSW 5.8 mph - N/A   Clear
11:15 AM 61.9 °F - 34.2 °F 35% 30.09 in 10.0 mi West 5.8 mph - N/A   Clear
11:35 AM 66.0 °F - 32.0 °F 28% 30.09 in 10.0 mi NW 6.9 mph - N/A   Clear
11:55 AM 69.8 °F - 29.1 °F 22% 30.09 in 10.0 mi NNW 9.2 mph - N/A   Clear
12:15 PM 70.0 °F - 27.7 °F 21% 30.09 in 10.0 mi NNW 8.1 mph - N/A   Clear
12:35 PM 70.9 °F - 27.1 °F 20% 30.09 in 10.0 mi NNW 3.5 mph - N/A   Clear
12:55 PM 72.5 °F - 26.8 °F 18% 30.08 in 10.0 mi NW 8.1 mph - N/A   Clear
1:15 PM 73.4 °F - 24.4 °F 16% 30.07 in 10.0 mi WNW 8.1 mph - N/A   Clear
1:35 PM 73.9 °F - 26.2 °F 17% 30.06 in 10.0 mi WNW 9.2 mph - N/A   Clear
1:55 PM 74.5 °F - 23.9 °F 15% 30.05 in 10.0 mi West 5.8 mph 9.2 mph N/A   Clear
2:15 PM 75.2 °F - 23.4 °F 14% 30.05 in 10.0 mi WNW 8.1 mph - N/A   Clear
2:35 PM 74.8 °F - 24.8 °F 16% 30.04 in 10.0 mi NW 4.6 mph - N/A   Clear
2:55 PM 75.6 °F - 25.2 °F 15% 30.03 in 10.0 mi North 11.5 mph 18.4 mph N/A   Clear
3:15 PM 75.6 °F - 25.7 °F 16% 30.03 in 10.0 mi NNW 11.5 mph - N/A   Clear
3:35 PM 76.5 °F - 22.8 °F 14% 30.03 in 10.0 mi NW 11.5 mph - N/A   Clear
3:55 PM 76.1 °F - 21.9 °F 13% 30.03 in 10.0 mi NW 6.9 mph - N/A   Clear
4:15 PM 75.7 °F - 21.6 °F 13% 30.03 in 10.0 mi NW 12.7 mph 18.4 mph N/A   Clear
4:35 PM 75.2 °F - 21.6 °F 13% 30.03 in 10.0 mi NNW 9.2 mph - N/A   Clear
4:55 PM 74.7 °F - 22.6 °F 14% 30.03 in 10.0 mi NNW 8.1 mph 19.6 mph N/A   Clear
5:15 PM 73.2 °F - 23.4 °F 15% 30.03 in 10.0 mi NNW 9.2 mph - N/A   Clear
5:35 PM 72.0 °F - 23.9 °F 17% 30.03 in 10.0 mi North 4.6 mph - N/A   Clear
5:55 PM 72.0 °F - 25.0 °F 17% 30.03 in 10.0 mi NNE 5.8 mph - N/A   Clear
6:15 PM 70.2 °F - 25.9 °F 19% 30.03 in 10.0 mi NNE 4.6 mph - N/A   Clear
6:35 PM 65.5 °F - 27.5 °F 24% 30.04 in 10.0 mi North 5.8 mph - N/A   Clear
6:55 PM 64.4 °F - 27.3 °F 25% 30.04 in 10.0 mi NNE 3.5 mph - N/A   Clear
7:15 PM 62.8 °F - 27.5 °F 26% 30.05 in 10.0 mi Calm Calm - N/A   Clear
7:35 PM 62.2 °F - 28.0 °F 27% 30.06 in 10.0 mi Calm Calm - N/A   Clear
7:55 PM 62.4 °F - 28.0 °F 27% 30.07 in 10.0 mi Calm Calm - N/A   Clear
8:15 PM 61.9 °F - 28.0 °F 28% 30.07 in 10.0 mi Calm Calm - N/A   Clear
8:35 PM 61.7 °F - 27.9 °F 28% 30.08 in 10.0 mi Calm Calm - N/A   Clear
8:55 PM 58.6 °F - 28.6 °F 32% 30.08 in 10.0 mi West 3.5 mph - N/A   Clear
9:15 PM 57.2 °F - 29.1 °F 34% 30.08 in 10.0 mi WSW 3.5 mph - N/A   Clear
9:35 PM 54.0 °F - 29.8 °F 40% 30.08 in 10.0 mi West 4.6 mph - N/A   Clear
9:55 PM 50.0 °F - 30.6 °F 47% 30.08 in 10.0 mi WSW 5.8 mph - N/A   Clear
10:15 PM 49.3 °F - 30.9 °F 49% 30.08 in 10.0 mi WSW 5.8 mph - N/A   Clear
10:35 PM 47.5 °F - 30.7 °F 52% 30.09 in 10.0 mi SW 6.9 mph - N/A   Clear
10:55 PM 47.1 °F - 30.9 °F 53% 30.08 in 10.0 mi SW 3.5 mph - N/A   Clear
11:15 PM 47.3 °F - 30.7 °F 53% 30.09 in 10.0 mi West 8.1 mph - N/A   Clear
11:35 PM 44.4 °F 39.5 °F 30.7 °F 59% 30.08 in 10.0 mi SW 9.2 mph - N/A   Clear
11:55 PM 44.6 °F 39.7 °F 30.7 °F 58% 30.08 in 10.0 mi SW 9.2 mph - N/A   Clear